This is the latest recevied weather packets stored in our database for station/object IZ5MMH-14. If no packets are shown the sender has not sent any weather packets the latest 10 day(s).
| Time | Temp. | Humidity | Pressure | Rain* | Wind** | Luminosity | Snow |
|---|---|---|---|---|---|---|---|
| 1777751408 | 19.44° C | 80% | 1021.7 hPa | - | - | - | - |
| 1777750808 | 19.44° C | 78% | 1021.5 hPa | - | - | - | - |
| 1777750208 | 19.44° C | 77% | 1021.6 hPa | - | - | - | - |
| 1777749008 | 19.44° C | 75% | 1021.6 hPa | - | - | - | - |
| 1777748409 | 20° C | 74% | 1021.4 hPa | - | - | - | - |
| 1777747809 | 20° C | 74% | 1021.5 hPa | - | - | - | - |
| 1777747208 | 20.56° C | 68% | 1021.3 hPa | - | - | - | - |
| 1777746608 | 20.56° C | 69% | 1021.4 hPa | - | - | - | - |
| 1777746009 | 21.11° C | 68% | 1021.2 hPa | - | - | - | - |
| 1777745409 | 21.11° C | 73% | 1021.2 hPa | - | - | - | - |
| 1777744808 | 20.56° C | 75% | 1021.2 hPa | - | - | - | - |
| 1777744209 | 20.56° C | 75% | 1021.2 hPa | - | - | - | - |
| 1777743608 | 20.56° C | 76% | 1021.2 hPa | - | - | - | - |
| 1777743008 | 20.56° C | 74% | 1021.3 hPa | - | - | - | - |
| 1777742408 | 20.56° C | 72% | 1021.2 hPa | - | - | - | - |
| 1777741808 | 20.56° C | 69% | 1021.2 hPa | - | - | - | - |
| 1777741209 | 20.56° C | 64% | 1021.3 hPa | - | - | - | - |
| 1777740610 | 21.11° C | 60% | 1021.4 hPa | - | - | - | - |
| 1777740008 | 21.11° C | 60% | 1021.4 hPa | - | - | - | - |
| 1777739408 | 21.11° C | 54% | 1021.5 hPa | - | - | - | - |
| 1777738809 | 21.11° C | 57% | 1021.5 hPa | - | - | - | - |
| 1777738208 | 20.56° C | 56% | 1021.7 hPa | - | - | - | - |
| 1777737608 | 20.56° C | 56% | 1021.6 hPa | - | - | - | - |
| 1777737008 | 21.11° C | 56% | 1021.7 hPa | - | - | - | - |
| 1777736409 | 21.11° C | 56% | 1021.9 hPa | - | - | - | - |
* Rain since midnight (hover to see other rain measurements)
** Current wind speed in m/s (hover to see current wind gust speed)